Overview Statistics Trail Chart Weather Telemetry Raw packets
 

This is the latest recevied weather packets stored in our database for station/object KJ6HT. If no packets are shown the sender has not sent any weather packets the latest 10 day(s).

<< 31 32 33 34 35 36 >>
Time Temp. Humidity Pressure Rain* Wind** Luminosity Snow
1787893219 31.11° C 56% 1007.8 hPa 0 mm - - -
1787892372 31.67° C 56% 1008 hPa 0 mm - - -
1787891447 30.56° C 57% 1008.1 hPa 0 mm - - -
1787890505 31.67° C 52% 1008.1 hPa 0 mm - - -
1787889677 30° C 55% 1008 hPa 0 mm - - -
1787888728 30.56° C 54% 1007.9 hPa 0 mm - - -
1787887871 30.56° C 54% 1007.6 hPa 0 mm - - -
1787886930 31.11° C 52% 1007.3 hPa 0 mm - - -
1787886078 31.11° C 52% 1007.2 hPa 0 mm - - -
1787885138 31.67° C 50% 1007 hPa 0 mm - - -
1787884287 32.78° C 47% 1007 hPa 0 mm - - -
1787883349 32.22° C 48% 1007 hPa 0 mm - - -
1787882431 33.33° C 45% 1006.8 hPa 0 mm - - -
1787881581 33.89° C 44% 1006.9 hPa 0 mm - - -
1787880624 34.44° C 43% 1006.7 hPa 0 mm - - -
1787879780 35.56° C 39% 1006.7 hPa 0 mm - - -
1787878831 36.67° C 36% 1006.6 hPa 0 mm - - -
1787877978 37.22° C 35% 1006.5 hPa 0 mm - - -
1787877061 38.33° C 32% 1006.5 hPa 0 mm - - -
1787876119 37.22° C 34% 1006.7 hPa 0 mm - - -
1787875295 37.78° C 34% 1006.5 hPa 0 mm - - -
1787874342 36.67° C 36% 1006.7 hPa 0 mm - - -
1787873481 36.67° C 36% 1006.7 hPa 0 mm - - -
1787872540 36.67° C 35% 1006.8 hPa 0 mm - - -
1787871681 36.67° C 35% 1006.7 hPa 0 mm - - -

* Rain latest hour (hover to see other rain measurements)
** Current wind speed in m/s (hover to see current wind gust speed)